Time,TemperatureF,DewpointF,PressureIn,WindDirection,WindDirectionDegrees,WindSpeedMPH,WindSpeedGustMPH,Humidity,HourlyPrecipIn,Conditions,Clouds,dailyrainin,SoftwareType,DateUTC
2013-07-02 00:00:00,66.1,61.8,29.97,NNE,32,0.0,11.0,86,0.00,,,0.00,WeatherCatV1.15B25,2013-07-02 04:00:00,
2013-07-02 00:01:00,66.1,61.8,29.97,NNE,32,0.0,0.0,86,0.00,,,0.00,WeatherCatV1.15B25,2013-07-02 04:01:00,
2013-07-02 00:02:00,66.0,61.7,29.97,NNW,345,2.0,4.0,86,0.00,,,0.00,WeatherCatV1.15B25,2013-07-02 04:02:00,
2013-07-02 00:03:00,66.0,61.7,29.97,North,0,2.0,4.0,86,0.00,,,0.00,WeatherCatV1.15B25,2013-07-02 04:03:00,
2013-07-02 00:07:00,66.0,61.7,29.97,NE,46,6.0,8.0,86,0.00,,,0.00,WeatherCatV1.15B25,2013-07-02 04:07:00,
2013-07-02 00:12:00,65.9,61.6,29.97,NNW,329,7.0,7.0,86,0.00,,,0.00,WeatherCatV1.15B25,2013-07-02 04:12:00,
2013-07-02 00:17:00,65.8,61.5,29.97,North,0,2.0,15.0,86,0.00,,,0.00,WeatherCatV1.15B25,2013-07-02 04:17:00,
2013-07-02 00:21:00,65.8,61.5,29.98,NE,53,3.0,7.0,86,0.00,,,0.00,WeatherCatV1.15B25,2013-07-02 04:21:00,
2013-07-02 00:26:00,65.7,61.4,29.98,NNE,30,6.0,6.0,86,0.00,,,0.00,WeatherCatV1.15B25,2013-07-02 04:26:00,
2013-07-02 00:31:00,65.7,61.7,29.99,NE,48,2.0,8.0,87,0.00,,,0.00,WeatherCatV1.15B25,2013-07-02 04:31:00,
2013-07-02 00:36:00,65.7,61.7,29.98,NE,52,2.0,6.0,87,0.00,,,0.00,WeatherCatV1.15B25,2013-07-02 04:36:00,
2013-07-02 00:41:00,65.7,61.7,29.98,ENE,67,0.0,5.0,87,0.00,,,0.00,WeatherCatV1.15B25,2013-07-02 04:41:00,
2013-07-02 00:46:00,65.6,61.3,29.98,NE,36,4.0,7.0,86,0.00,,,0.00,WeatherCatV1.15B25,2013-07-02 04:46:00,
2013-07-02 00:51:00,65.6,61.3,29.98,East,100,2.0,6.0,86,0.00,,,0.00,WeatherCatV1.15B25,2013-07-02 04:51:00,
2013-07-02 00:56:00,65.6,61.6,29.98,NE,38,0.0,2.0,87,0.00,,,0.00,WeatherCatV1.15B25,2013-07-02 04:56:00,
2013-07-02 01:01:00,65.6,61.3,29.98,WNW,294,4.0,9.0,86,0.00,,,0.00,WeatherCatV1.15B25,2013-07-02 05:01:00,
2013-07-02 01:06:00,65.6,61.3,29.98,ENE,57,0.0,5.0,86,0.00,,,0.00,WeatherCatV1.15B25,2013-07-02 05:06:00,
2013-07-02 01:11:00,65.6,61.3,29.98,NE,45,1.0,4.0,86,0.00,,,0.00,WeatherCatV1.15B25,2013-07-02 05:11:00,
2013-07-02 01:16:00,65.5,61.2,29.96,NNE,18,0.0,5.0,86,0.00,,,0.00,WeatherCatV1.15B25,2013-07-02 05:16:00,
2013-07-02 01:21:00,65.5,61.2,29.96,NNW,329,3.0,6.0,86,0.00,,,0.00,WeatherCatV1.15B25,2013-07-02 05:21:00,
2013-07-02 01:26:00,65.4,61.1,29.96,NE,56,0.0,10.0,86,0.00,,,0.00,WeatherCatV1.15B25,2013-07-02 05:26:00,
2013-07-02 01:31:00,65.4,61.1,29.96,NE,49,0.0,6.0,86,0.00,,,0.00,WeatherCatV1.15B25,2013-07-02 05:31:00,
2013-07-02 01:36:00,65.3,61.0,29.97,NNE,16,5.0,12.0,86,0.00,,,0.00,WeatherCatV1.15B25,2013-07-02 05:36:00,
2013-07-02 01:41:00,65.3,61.3,29.97,ENE,64,3.0,4.0,87,0.00,,,0.00,WeatherCatV1.15B25,2013-07-02 05:41:00,
2013-07-02 01:46:00,65.2,61.2,29.97,North,11,0.0,10.0,87,0.00,,,0.00,WeatherCatV1.15B25,2013-07-02 05:46:00,
2013-07-02 01:51:00,65.1,61.1,29.97,NE,35,0.0,0.0,87,0.00,,,0.00,WeatherCatV1.15B25,2013-07-02 05:51:00,
2013-07-02 01:56:00,65.0,61.0,29.97,NNW,343,4.0,4.0,87,0.00,,,0.00,WeatherCatV1.15B25,2013-07-02 05:56:00,
2013-07-02 02:01:00,64.9,60.9,29.98,NE,37,6.0,17.0,87,0.00,,,0.00,WeatherCatV1.15B25,2013-07-02 06:01:00,
2013-07-02 02:06:00,64.8,61.2,29.98,NNW,330,8.0,10.0,88,0.00,,,0.00,WeatherCatV1.15B25,2013-07-02 06:06:00,
2013-07-02 02:11:00,64.7,61.1,29.98,North,11,0.0,5.0,88,0.00,,,0.00,WeatherCatV1.15B25,2013-07-02 06:11:00,
2013-07-02 02:16:00,64.6,61.0,29.97,NE,48,2.0,7.0,88,0.00,,,0.00,WeatherCatV1.15B25,2013-07-02 06:16:00,
2013-07-02 02:21:00,64.5,60.9,29.97,NNW,345,1.0,9.0,88,0.00,,,0.00,WeatherCatV1.15B25,2013-07-02 06:21:00,
2013-07-02 02:26:00,64.4,60.8,29.96,NE,37,3.0,10.0,88,0.00,,,0.00,WeatherCatV1.15B25,2013-07-02 06:26:00,
2013-07-02 02:31:00,64.2,60.6,29.96,ENE,74,7.0,11.0,88,0.00,,,0.00,WeatherCatV1.15B25,2013-07-02 06:31:00,
2013-07-02 02:36:00,64.1,60.5,29.96,East,80,0.0,8.0,88,0.00,,,0.00,WeatherCatV1.15B25,2013-07-02 06:36:00,
2013-07-02 02:41:00,64.0,60.4,29.96,NE,37,0.0,6.0,88,0.00,,,0.00,WeatherCatV1.15B25,2013-07-02 06:41:00,
2013-07-02 02:46:00,63.9,60.3,29.96,NNE,15,5.0,5.0,88,0.00,,,0.00,WeatherCatV1.15B25,2013-07-02 06:46:00,
2013-07-02 02:51:00,63.9,60.3,29.95,NW,317,4.0,12.0,88,0.00,,,0.00,WeatherCatV1.15B25,2013-07-02 06:51:00,
2013-07-02 02:56:00,63.9,60.3,29.95,NNE,26,0.0,5.0,88,0.00,,,0.00,WeatherCatV1.15B25,2013-07-02 06:56:00,
2013-07-02 03:01:00,63.8,60.2,29.95,NNE,26,4.0,6.0,88,0.00,,,0.00,WeatherCatV1.15B25,2013-07-02 07:01:00,
2013-07-02 03:06:00,63.7,60.1,29.95,NW,326,3.0,7.0,88,0.00,,,0.00,WeatherCatV1.15B25,2013-07-02 07:06:00,
2013-07-02 03:11:00,63.7,60.1,29.95,NNW,341,5.0,5.0,88,0.00,,,0.00,WeatherCatV1.15B25,2013-07-02 07:11:00,
2013-07-02 03:16:00,63.6,60.0,29.95,NNW,346,9.0,9.0,88,0.00,,,0.00,WeatherCatV1.15B25,2013-07-02 07:16:00,
2013-07-02 03:21:00,63.6,60.3,29.95,NNE,26,0.0,7.0,89,0.00,,,0.00,WeatherCatV1.15B25,2013-07-02 07:21:00,
2013-07-02 03:26:00,63.5,60.2,29.96,ENE,57,2.0,10.0,89,0.00,,,0.00,WeatherCatV1.15B25,2013-07-02 07:26:00,
2013-07-02 03:31:00,63.5,60.2,29.96,NE,40,2.0,4.0,89,0.00,,,0.00,WeatherCatV1.15B25,2013-07-02 07:31:00,
2013-07-02 03:36:00,63.4,60.1,29.96,NE,53,1.0,4.0,89,0.00,,,0.00,WeatherCatV1.15B25,2013-07-02 07:36:00,
2013-07-02 03:41:00,63.4,60.1,29.96,East,101,0.0,9.0,89,0.00,,,0.00,WeatherCatV1.15B25,2013-07-02 07:41:00,
2013-07-02 03:46:00,63.4,60.1,29.96,NNE,12,0.0,0.0,89,0.00,,,0.00,WeatherCatV1.15B25,2013-07-02 07:46:00,
2013-07-02 03:51:00,63.4,60.1,29.96,North,9,2.0,8.0,89,0.00,,,0.00,WeatherCatV1.15B25,2013-07-02 07:51:00,
2013-07-02 03:56:00,63.5,60.2,29.96,NE,36,3.0,7.0,89,0.00,,,0.00,WeatherCatV1.15B25,2013-07-02 07:56:00,
2013-07-02 04:01:00,63.5,60.2,29.96,NNE,24,3.0,5.0,89,0.00,,,0.00,WeatherCatV1.15B25,2013-07-02 08:01:00,
2013-07-02 04:06:00,63.5,60.2,29.96,NW,311,3.0,4.0,89,0.00,,,0.00,WeatherCatV1.15B25,2013-07-02 08:06:00,
2013-07-02 04:11:00,63.4,60.1,29.95,NE,53,9.0,9.0,89,0.00,,,0.00,WeatherCatV1.15B25,2013-07-02 08:11:00,
2013-07-02 04:16:00,63.4,60.1,29.95,NNE,19,0.0,4.0,89,0.00,,,0.00,WeatherCatV1.15B25,2013-07-02 08:16:00,
2013-07-02 04:21:00,63.4,60.1,29.94,NE,51,7.0,9.0,89,0.00,,,0.00,WeatherCatV1.15B25,2013-07-02 08:21:00,
2013-07-02 04:26:00,63.3,60.0,29.94,NW,315,1.0,6.0,89,0.00,,,0.00,WeatherCatV1.15B25,2013-07-02 08:26:00,
2013-07-02 04:31:00,63.2,60.2,29.94,NE,42,0.0,3.0,90,0.00,,,0.00,WeatherCatV1.15B25,2013-07-02 08:31:00,
2013-07-02 04:36:00,63.1,60.1,29.95,NNE,23,0.0,3.0,90,0.00,,,0.00,WeatherCatV1.15B25,2013-07-02 08:36:00,
2013-07-02 04:41:00,63.1,60.1,29.95,North,0,3.0,10.0,90,0.00,,,0.00,WeatherCatV1.15B25,2013-07-02 08:41:00,
2013-07-02 04:46:00,63.1,60.1,29.96,North,355,9.0,9.0,90,0.00,,,0.00,WeatherCatV1.15B25,2013-07-02 08:46:00,
2013-07-02 04:51:00,63.1,60.1,29.96,ENE,61,2.0,7.0,90,0.00,,,0.00,WeatherCatV1.15B25,2013-07-02 08:51:00,
2013-07-02 04:56:00,63.2,60.2,29.96,NE,34,3.0,7.0,90,0.00,,,0.00,WeatherCatV1.15B25,2013-07-02 08:56:00,
2013-07-02 05:01:00,63.2,60.2,29.97,NNE,14,0.0,3.0,90,0.00,,,0.00,WeatherCatV1.15B25,2013-07-02 09:01:00,
2013-07-02 05:06:00,63.3,60.3,29.97,NE,52,1.0,3.0,90,0.00,,,0.00,WeatherCatV1.15B25,2013-07-02 09:06:00,
2013-07-02 05:11:00,63.3,60.3,29.97,NNE,15,1.0,1.0,90,0.00,,,0.00,WeatherCatV1.15B25,2013-07-02 09:11:00,
2013-07-02 05:16:00,63.4,60.4,29.97,NNW,344,2.0,3.0,90,0.00,,,0.00,WeatherCatV1.15B25,2013-07-02 09:16:00,
2013-07-02 05:21:00,63.4,60.4,29.97,NE,53,0.0,0.0,90,0.00,,,0.00,WeatherCatV1.15B25,2013-07-02 09:21:00,
2013-07-02 05:26:00,63.4,60.4,29.97,NE,34,0.0,10.0,90,0.00,,,0.00,WeatherCatV1.15B25,2013-07-02 09:26:00,
2013-07-02 05:31:00,63.5,60.2,29.97,NNE,23,2.0,5.0,89,0.00,,,0.00,WeatherCatV1.15B25,2013-07-02 09:31:00,
2013-07-02 05:36:00,63.5,60.2,29.97,NNE,22,3.0,6.0,89,0.00,,,0.00,WeatherCatV1.15B25,2013-07-02 09:36:00,
2013-07-02 05:41:00,63.5,60.2,29.97,North,355,0.0,7.0,89,0.00,,,0.00,WeatherCatV1.15B25,2013-07-02 09:41:00,
2013-07-02 05:46:00,63.5,60.2,29.97,North,0,0.0,3.0,89,0.00,,,0.00,WeatherCatV1.15B25,2013-07-02 09:46:00,
2013-07-02 05:51:00,63.5,60.2,29.97,NNW,343,1.0,4.0,89,0.00,,,0.00,WeatherCatV1.15B25,2013-07-02 09:51:00,
2013-07-02 05:56:00,63.5,60.2,29.97,NNE,17,5.0,9.0,89,0.00,,,0.00,WeatherCatV1.15B25,2013-07-02 09:56:00,
2013-07-02 06:01:00,63.5,60.2,29.97,North,0,0.0,3.0,89,0.00,,,0.00,WeatherCatV1.15B25,2013-07-02 10:01:00,
2013-07-02 06:06:00,63.5,60.2,29.97,NNE,26,0.0,5.0,89,0.00,,,0.00,WeatherCatV1.15B25,2013-07-02 10:06:00,
2013-07-02 06:11:00,63.4,60.1,29.98,NNW,338,2.0,5.0,89,0.00,,,0.00,WeatherCatV1.15B25,2013-07-02 10:11:00,
2013-07-02 06:16:00,63.4,60.1,29.98,NE,49,0.0,6.0,89,0.00,,,0.00,WeatherCatV1.15B25,2013-07-02 10:16:00,
2013-07-02 06:21:00,63.3,60.0,29.98,NNW,340,2.0,3.0,89,0.00,,,0.00,WeatherCatV1.15B25,2013-07-02 10:21:00,
2013-07-02 06:26:00,63.3,59.7,29.98,NNE,15,4.0,4.0,88,0.00,,,0.00,WeatherCatV1.15B25,2013-07-02 10:26:00,
2013-07-02 06:31:00,63.3,59.7,29.99,NNE,30,0.0,3.0,88,0.00,,,0.00,WeatherCatV1.15B25,2013-07-02 10:31:00,
2013-07-02 06:36:00,63.3,59.7,29.99,North,11,2.0,3.0,88,0.00,,,0.00,WeatherCatV1.15B25,2013-07-02 10:36:00,
2013-07-02 06:41:00,63.3,59.7,29.99,North,9,0.0,3.0,88,0.00,,,0.00,WeatherCatV1.15B25,2013-07-02 10:41:00,
2013-07-02 06:46:00,63.3,59.7,29.99,NNW,343,1.0,4.0,88,0.00,,,0.00,WeatherCatV1.15B25,2013-07-02 10:46:00,
2013-07-02 06:51:00,63.3,59.7,29.99,NE,51,1.0,5.0,88,0.00,,,0.00,WeatherCatV1.15B25,2013-07-02 10:51:00,
2013-07-02 06:56:00,63.4,60.1,29.98,SSW,194,0.0,1.0,89,0.00,,,0.00,WeatherCatV1.15B25,2013-07-02 10:56:00,
2013-07-02 07:01:00,63.4,59.8,29.99,NNE,24,3.0,3.0,88,0.00,,,0.00,WeatherCatV1.15B25,2013-07-02 11:01:00,
2013-07-02 07:06:00,63.5,59.9,29.99,NNE,19,2.0,5.0,88,0.00,,,0.00,WeatherCatV1.15B25,2013-07-02 11:06:00,
2013-07-02 07:11:00,63.5,59.9,29.99,NNE,25,0.0,3.0,88,0.00,,,0.00,WeatherCatV1.15B25,2013-07-02 11:11:00,
2013-07-02 07:16:00,63.6,60.0,29.99,NE,45,5.0,7.0,88,0.00,,,0.00,WeatherCatV1.15B25,2013-07-02 11:16:00,
2013-07-02 07:21:00,63.6,60.0,29.99,ENE,59,0.0,0.0,88,0.00,,,0.00,WeatherCatV1.15B25,2013-07-02 11:21:00,
2013-07-02 07:26:00,63.7,60.1,29.99,NNW,328,3.0,4.0,88,0.00,,,0.00,WeatherCatV1.15B25,2013-07-02 11:26:00,
2013-07-02 07:31:00,63.8,60.2,29.99,ENE,60,1.0,3.0,88,0.00,,,0.00,WeatherCatV1.15B25,2013-07-02 11:31:00,
2013-07-02 07:36:00,63.9,60.3,29.99,NNW,344,2.0,6.0,88,0.00,,,0.00,WeatherCatV1.15B25,2013-07-02 11:36:00,
2013-07-02 07:41:00,64.0,60.4,29.99,NE,36,0.0,2.0,88,0.00,,,0.00,WeatherCatV1.15B25,2013-07-02 11:41:00,
2013-07-02 07:46:00,64.2,60.6,29.99,NE,36,0.0,1.0,88,0.00,,,0.00,WeatherCatV1.15B25,2013-07-02 11:46:00,
2013-07-02 07:51:00,64.3,60.7,29.99,North,0,2.0,3.0,88,0.00,,,0.00,WeatherCatV1.15B25,2013-07-02 11:51:00,
2013-07-02 07:56:00,64.4,60.8,29.99,NNW,341,2.0,5.0,88,0.00,,,0.00,WeatherCatV1.15B25,2013-07-02 11:56:00,
2013-07-02 08:01:00,64.5,60.5,29.99,NE,34,2.0,3.0,87,0.00,,,0.00,WeatherCatV1.15B25,2013-07-02 12:01:00,
2013-07-02 08:06:00,64.5,60.5,29.99,NNW,338,1.0,2.0,87,0.00,,,0.00,WeatherCatV1.15B25,2013-07-02 12:06:00,
2013-07-02 08:11:00,64.6,60.6,29.99,North,5,2.0,4.0,87,0.00,,,0.00,WeatherCatV1.15B25,2013-07-02 12:11:00,
2013-07-02 08:16:00,64.7,60.7,29.99,ENE,78,0.0,1.0,87,0.00,,,0.00,WeatherCatV1.15B25,2013-07-02 12:16:00,
2013-07-02 08:21:00,64.9,60.9,29.99,North,355,2.0,3.0,87,0.00,,,0.00,WeatherCatV1.15B25,2013-07-02 12:21:00,
2013-07-02 08:26:00,65.1,61.1,29.99,NE,52,0.0,3.0,87,0.00,,,0.00,WeatherCatV1.15B25,2013-07-02 12:26:00,
2013-07-02 08:31:00,65.3,61.3,29.99,North,0,1.0,2.0,87,0.00,,,0.00,WeatherCatV1.15B25,2013-07-02 12:31:00,
2013-07-02 08:36:00,65.6,61.6,29.99,North,0,0.0,2.0,87,0.00,,,0.00,WeatherCatV1.15B25,2013-07-02 12:36:00,
2013-07-02 08:41:00,65.8,61.8,29.99,NE,43,0.0,2.0,87,0.00,,,0.00,WeatherCatV1.15B25,2013-07-02 12:41:00,
2013-07-02 08:46:00,66.0,62.0,29.99,NE,43,0.0,2.0,87,0.00,,,0.00,WeatherCatV1.15B25,2013-07-02 12:46:00,
2013-07-02 08:51:00,66.3,62.3,29.99,NE,43,0.0,0.0,87,0.00,,,0.00,WeatherCatV1.15B25,2013-07-02 12:51:00,
2013-07-02 08:56:00,66.4,62.1,30.00,NNW,338,0.0,1.0,86,0.00,,,0.00,WeatherCatV1.15B25,2013-07-02 12:56:00,
2013-07-02 09:01:00,66.7,62.4,30.00,NNW,338,0.0,0.0,86,0.00,,,0.00,WeatherCatV1.15B25,2013-07-02 13:01:00,
2013-07-02 09:06:00,67.0,62.7,30.00,NNW,338,0.0,0.0,86,0.00,,,0.00,WeatherCatV1.15B25,2013-07-02 13:06:00,
2013-07-02 09:11:00,67.3,63.0,30.00,NNW,338,0.0,1.0,86,0.00,,,0.00,WeatherCatV1.15B25,2013-07-02 13:11:00,
2013-07-02 09:16:00,67.6,63.3,30.00,NNW,338,0.0,0.0,86,0.00,,,0.00,WeatherCatV1.15B25,2013-07-02 13:16:00,
2013-07-02 09:21:00,67.8,63.5,30.00,NNW,338,0.0,0.0,86,0.00,,,0.00,WeatherCatV1.15B25,2013-07-02 13:21:00,
2013-07-02 09:26:00,67.8,63.1,30.00,NNW,338,0.0,0.0,85,0.00,,,0.00,WeatherCatV1.15B25,2013-07-02 13:26:00,
2013-07-02 09:31:00,67.7,62.7,30.00,NNW,337,0.0,1.0,84,0.00,,,0.00,WeatherCatV1.15B25,2013-07-02 13:31:00,
2013-07-02 09:36:00,67.7,63.0,30.00,NNW,340,0.0,1.0,85,0.00,,,0.00,WeatherCatV1.15B25,2013-07-02 13:36:00,
2013-07-02 09:41:00,67.6,62.6,30.00,North,355,0.0,0.0,84,0.00,,,0.00,WeatherCatV1.15B25,2013-07-02 13:41:00,
2013-07-02 09:46:00,67.6,62.6,30.00,NNE,13,2.0,4.0,84,0.00,,,0.00,WeatherCatV1.15B25,2013-07-02 13:46:00,
2013-07-02 09:51:00,67.3,62.3,30.00,North,355,3.0,4.0,84,0.00,,,0.00,WeatherCatV1.15B25,2013-07-02 13:51:00,
2013-07-02 09:56:00,67.2,62.2,30.00,North,0,1.0,3.0,84,0.00,,,0.00,WeatherCatV1.15B25,2013-07-02 13:56:00,
2013-07-02 10:01:00,67.2,62.2,30.00,North,11,2.0,5.0,84,0.00,,,0.00,WeatherCatV1.15B25,2013-07-02 14:01:00,
2013-07-02 10:06:00,67.1,62.1,30.00,North,355,0.0,0.0,84,0.00,,,0.00,WeatherCatV1.15B25,2013-07-02 14:06:00,
2013-07-02 10:11:00,67.0,62.0,30.00,North,355,0.0,0.0,84,0.00,,,0.00,WeatherCatV1.15B25,2013-07-02 14:11:00,
2013-07-02 10:16:00,67.1,62.1,30.00,North,355,2.0,2.0,84,0.00,,,0.00,WeatherCatV1.15B25,2013-07-02 14:16:00,
2013-07-02 10:21:00,67.0,62.0,30.00,NNE,15,1.0,3.0,84,0.00,,,0.00,WeatherCatV1.15B25,2013-07-02 14:21:00,
2013-07-02 10:26:00,67.0,62.0,30.00,NNE,19,1.0,4.0,84,0.00,,,0.00,WeatherCatV1.15B25,2013-07-02 14:26:00,
2013-07-02 10:31:00,67.0,62.0,30.01,North,0,1.0,3.0,84,0.00,,,0.00,WeatherCatV1.15B25,2013-07-02 14:31:00,
2013-07-02 10:36:00,67.0,62.0,30.01,NNW,348,0.0,3.0,84,0.00,,,0.00,WeatherCatV1.15B25,2013-07-02 14:36:00,
2013-07-02 10:41:00,67.2,62.2,30.01,NNE,32,2.0,3.0,84,0.00,,,0.00,WeatherCatV1.15B25,2013-07-02 14:41:00,
2013-07-02 10:46:00,67.3,62.3,30.01,North,0,0.0,2.0,84,0.00,,,0.00,WeatherCatV1.15B25,2013-07-02 14:46:00,
2013-07-02 10:51:00,67.5,62.5,30.01,ENE,59,0.0,2.0,84,0.00,,,0.00,WeatherCatV1.15B25,2013-07-02 14:51:00,
2013-07-02 10:56:00,67.8,62.8,30.01,NNE,13,2.0,2.0,84,0.00,,,0.00,WeatherCatV1.15B25,2013-07-02 14:56:00,
2013-07-02 11:01:00,67.9,62.5,30.01,ENE,66,0.0,3.0,83,0.00,,,0.00,WeatherCatV1.15B25,2013-07-02 15:01:00,
2013-07-02 11:06:00,68.0,62.6,30.01,NNE,17,0.0,1.0,83,0.00,,,0.00,WeatherCatV1.15B25,2013-07-02 15:06:00,
2013-07-02 11:11:00,68.2,62.8,30.01,NNE,27,0.0,2.0,83,0.00,,,0.00,WeatherCatV1.15B25,2013-07-02 15:11:00,
2013-07-02 11:16:00,68.4,63.0,30.01,North,0,1.0,4.0,83,0.00,,,0.00,WeatherCatV1.15B25,2013-07-02 15:16:00,
2013-07-02 11:21:00,68.4,62.7,30.01,NNW,348,2.0,4.0,82,0.00,,,0.00,WeatherCatV1.15B25,2013-07-02 15:21:00,
2013-07-02 11:26:00,68.2,62.5,30.01,NW,319,1.0,4.0,82,0.00,,,0.00,WeatherCatV1.15B25,2013-07-02 15:26:00,
2013-07-02 11:31:00,68.4,62.7,30.02,NNW,336,0.0,0.0,82,0.00,,,0.00,WeatherCatV1.15B25,2013-07-02 15:31:00,
2013-07-02 11:36:00,68.6,62.9,30.02,NNW,340,1.0,3.0,82,0.00,,,0.00,WeatherCatV1.15B25,2013-07-02 15:36:00,
2013-07-02 11:41:00,68.7,63.0,30.01,NE,38,3.0,4.0,82,0.00,,,0.00,WeatherCatV1.15B25,2013-07-02 15:41:00,
2013-07-02 11:46:00,69.0,63.3,30.02,North,5,0.0,0.0,82,0.00,,,0.00,WeatherCatV1.15B25,2013-07-02 15:46:00,
2013-07-02 11:51:00,69.1,63.0,30.02,NE,48,1.0,2.0,81,0.00,,,0.00,WeatherCatV1.15B25,2013-07-02 15:51:00,
2013-07-02 11:56:00,69.0,62.6,30.02,North,0,0.0,4.0,80,0.00,,,0.00,WeatherCatV1.15B25,2013-07-02 15:56:00,
2013-07-02 12:01:00,69.2,63.1,30.02,North,349,3.0,3.0,81,0.00,,,0.00,WeatherCatV1.15B25,2013-07-02 16:01:00,
2013-07-02 12:06:00,69.2,62.8,30.02,NNE,28,1.0,3.0,80,0.00,,,0.00,WeatherCatV1.15B25,2013-07-02 16:06:00,
2013-07-02 12:11:00,69.4,63.3,30.02,NNE,25,3.0,3.0,81,0.00,,,0.00,WeatherCatV1.15B25,2013-07-02 16:11:00,
2013-07-02 12:16:00,69.4,63.0,30.02,NNE,31,2.0,3.0,80,0.00,,,0.00,WeatherCatV1.15B25,2013-07-02 16:16:00,
2013-07-02 12:21:00,69.3,62.9,30.02,NE,38,3.0,5.0,80,0.00,,,0.00,WeatherCatV1.15B25,2013-07-02 16:21:00,
2013-07-02 12:26:00,69.3,62.9,30.02,NNE,21,3.0,3.0,80,0.00,,,0.00,WeatherCatV1.15B25,2013-07-02 16:26:00,
2013-07-02 12:31:00,69.5,63.4,30.02,NNW,341,2.0,3.0,81,0.00,,,0.00,WeatherCatV1.15B25,2013-07-02 16:31:00,
2013-07-02 12:36:00,69.7,63.2,30.02,North,5,2.0,3.0,80,0.00,,,0.00,WeatherCatV1.15B25,2013-07-02 16:36:00,
2013-07-02 12:41:00,69.8,63.3,30.02,North,0,3.0,3.0,80,0.00,,,0.00,WeatherCatV1.15B25,2013-07-02 16:41:00,
2013-07-02 12:46:00,69.7,62.9,30.02,NNW,334,1.0,4.0,79,0.00,,,0.00,WeatherCatV1.15B25,2013-07-02 16:46:00,
2013-07-02 12:51:00,69.4,62.6,30.02,North,0,3.0,4.0,79,0.00,,,0.00,WeatherCatV1.15B25,2013-07-02 16:51:00,
2013-07-02 12:56:00,68.7,62.3,30.02,NNE,28,2.0,4.0,80,0.00,,,0.00,WeatherCatV1.15B25,2013-07-02 16:56:00,
2013-07-02 13:01:00,68.5,62.1,30.02,NW,326,4.0,7.0,80,0.00,,,0.00,WeatherCatV1.15B25,2013-07-02 17:01:00,
2013-07-02 13:06:00,67.9,61.8,30.02,NNE,29,1.0,6.0,81,0.00,,,0.00,WeatherCatV1.15B25,2013-07-02 17:06:00,
2013-07-02 13:11:00,67.8,62.1,30.03,North,0,1.0,6.0,82,0.00,,,0.00,WeatherCatV1.15B25,2013-07-02 17:11:00,
2013-07-02 13:16:00,68.2,62.8,30.03,NNE,25,0.0,0.0,83,0.00,,,0.00,WeatherCatV1.15B25,2013-07-02 17:16:00,
2013-07-02 13:21:00,68.6,62.9,30.02,North,355,2.0,3.0,82,0.00,,,0.00,WeatherCatV1.15B25,2013-07-02 17:21:00,
2013-07-02 13:26:00,69.0,62.9,30.02,North,0,0.0,10.0,81,0.00,,,0.00,WeatherCatV1.15B25,2013-07-02 17:26:00,
2013-07-02 13:31:00,69.1,63.0,30.02,NNW,342,1.0,5.0,81,0.00,,,0.00,WeatherCatV1.15B25,2013-07-02 17:31:00,
2013-07-02 13:36:00,69.2,62.8,30.02,NNE,15,2.0,7.0,80,0.00,,,0.00,WeatherCatV1.15B25,2013-07-02 17:36:00,
2013-07-02 13:41:00,69.4,63.3,30.02,ENE,71,0.0,6.0,81,0.00,,,0.00,WeatherCatV1.15B25,2013-07-02 17:41:00,
2013-07-02 13:46:00,69.3,62.9,30.02,North,0,3.0,6.0,80,0.00,,,0.00,WeatherCatV1.15B25,2013-07-02 17:46:00,
2013-07-02 13:51:00,68.9,62.5,30.02,NNW,344,4.0,5.0,80,0.00,,,0.00,WeatherCatV1.15B25,2013-07-02 17:51:00,
2013-07-02 13:56:00,68.8,62.7,30.02,ENE,57,2.0,5.0,81,0.00,,,0.00,WeatherCatV1.15B25,2013-07-02 17:56:00,
2013-07-02 14:01:00,68.9,62.8,30.02,North,351,6.0,6.0,81,0.00,,,0.00,WeatherCatV1.15B25,2013-07-02 18:01:00,
2013-07-02 14:06:00,69.0,62.9,30.02,North,0,4.0,4.0,81,0.00,,,0.00,WeatherCatV1.15B25,2013-07-02 18:06:00,
2013-07-02 14:11:00,69.1,63.0,30.02,NNE,15,0.0,6.0,81,0.00,,,0.00,WeatherCatV1.15B25,2013-07-02 18:11:00,
2013-07-02 14:16:00,69.3,63.2,30.02,ENE,73,0.0,6.0,81,0.00,,,0.00,WeatherCatV1.15B25,2013-07-02 18:16:00,
2013-07-02 14:21:00,69.7,63.9,30.02,North,355,0.0,4.0,82,0.00,,,0.00,WeatherCatV1.15B25,2013-07-02 18:21:00,
2013-07-02 14:26:00,70.4,64.3,30.02,NE,56,1.0,5.0,81,0.00,,,0.00,WeatherCatV1.15B25,2013-07-02 18:26:00,
2013-07-02 14:31:00,71.2,64.7,30.01,East,84,2.0,4.0,80,0.00,,,0.00,WeatherCatV1.15B25,2013-07-02 18:31:00,
2013-07-02 14:36:00,71.4,64.5,30.01,NE,49,10.0,10.0,79,0.00,,,0.00,WeatherCatV1.15B25,2013-07-02 18:36:00,
2013-07-02 14:41:00,71.3,64.1,30.01,North,5,2.0,7.0,78,0.00,,,0.00,WeatherCatV1.15B25,2013-07-02 18:41:00,
2013-07-02 14:46:00,71.4,64.5,30.02,NNW,346,2.0,5.0,79,0.00,,,0.00,WeatherCatV1.15B25,2013-07-02 18:46:00,
2013-07-02 14:51:00,71.4,64.5,30.02,NE,49,5.0,5.0,79,0.00,,,0.00,WeatherCatV1.15B25,2013-07-02 18:51:00,
2013-07-02 14:56:00,71.3,64.4,30.02,NNW,345,3.0,5.0,79,0.00,,,0.00,WeatherCatV1.15B25,2013-07-02 18:56:00,
2013-07-02 15:01:00,71.3,64.8,30.02,NNW,345,6.0,9.0,80,0.00,,,0.00,WeatherCatV1.15B25,2013-07-02 19:01:00,
2013-07-02 15:06:00,71.5,65.0,30.02,ENE,62,3.0,7.0,80,0.00,,,0.00,WeatherCatV1.15B25,2013-07-02 19:06:00,
2013-07-02 15:11:00,72.0,65.5,30.02,NE,48,0.0,4.0,80,0.00,,,0.00,WeatherCatV1.15B25,2013-07-02 19:11:00,
2013-07-02 15:16:00,71.7,64.8,30.01,NNE,30,4.0,6.0,79,0.00,,,0.00,WeatherCatV1.15B25,2013-07-02 19:16:00,
2013-07-02 15:21:00,71.6,65.1,30.01,NE,48,2.0,4.0,80,0.00,,,0.00,WeatherCatV1.15B25,2013-07-02 19:21:00,
2013-07-02 15:26:00,71.7,65.2,30.01,North,10,1.0,4.0,80,0.00,,,0.00,WeatherCatV1.15B25,2013-07-02 19:26:00,
2013-07-02 15:32:00,72.2,65.7,30.01,NNW,338,2.0,6.0,80,0.00,,,0.00,WeatherCatV1.15B25,2013-07-02 19:32:00,
2013-07-02 15:37:00,72.4,65.9,30.01,North,5,0.0,3.0,80,0.00,,,0.00,WeatherCatV1.15B25,2013-07-02 19:37:00,
2013-07-02 15:42:00,72.5,65.2,30.01,NNE,29,3.0,6.0,78,0.00,,,0.00,WeatherCatV1.15B25,2013-07-02 19:42:00,
2013-07-02 15:47:00,72.9,66.0,30.01,NE,45,0.0,2.0,79,0.00,,,0.00,WeatherCatV1.15B25,2013-07-02 19:47:00,
2013-07-02 15:52:00,73.4,66.5,30.01,NNE,17,2.0,4.0,79,0.00,,,0.00,WeatherCatV1.15B25,2013-07-02 19:52:00,
2013-07-02 15:57:00,74.0,66.7,30.00,North,351,2.0,5.0,78,0.00,,,0.00,WeatherCatV1.15B25,2013-07-02 19:57:00,
2013-07-02 16:02:00,74.2,67.3,30.00,North,355,0.0,0.0,79,0.00,,,0.00,WeatherCatV1.15B25,2013-07-02 20:02:00,
2013-07-02 16:07:00,74.4,66.7,30.00,NE,35,2.0,4.0,77,0.00,,,0.00,WeatherCatV1.15B25,2013-07-02 20:07:00,
2013-07-02 16:12:00,74.8,67.1,30.00,ENE,70,1.0,9.0,77,0.00,,,0.00,WeatherCatV1.15B25,2013-07-02 20:12:00,
2013-07-02 16:17:00,74.6,66.1,30.00,NNE,32,3.0,4.0,75,0.00,,,0.00,WeatherCatV1.15B25,2013-07-02 20:17:00,
2013-07-02 16:22:00,74.0,65.6,30.00,North,0,0.0,4.0,75,0.00,,,0.00,WeatherCatV1.15B25,2013-07-02 20:22:00,
2013-07-02 16:27:00,74.0,65.6,30.00,North,11,2.0,5.0,75,0.00,,,0.00,WeatherCatV1.15B25,2013-07-02 20:27:00,
2013-07-02 16:32:00,73.7,65.7,30.00,North,349,4.0,7.0,76,0.00,,,0.00,WeatherCatV1.15B25,2013-07-02 20:32:00,
2013-07-02 16:37:00,73.1,64.7,30.00,North,355,0.0,6.0,75,0.00,,,0.00,WeatherCatV1.15B25,2013-07-02 20:37:00,
2013-07-02 16:42:00,73.0,65.0,30.00,North,0,2.0,4.0,76,0.00,,,0.00,WeatherCatV1.15B25,2013-07-02 20:42:00,
2013-07-02 16:47:00,73.1,65.1,30.00,North,355,3.0,3.0,76,0.00,,,0.00,WeatherCatV1.15B25,2013-07-02 20:47:00,
2013-07-02 16:52:00,72.9,64.9,30.00,NNW,346,2.0,3.0,76,0.00,,,0.00,WeatherCatV1.15B25,2013-07-02 20:52:00,
2013-07-02 16:57:00,72.0,64.0,30.00,NNW,339,2.0,11.0,76,0.00,,,0.00,WeatherCatV1.15B25,2013-07-02 20:57:00,
2013-07-02 17:02:00,71.4,63.8,30.00,NE,40,3.0,6.0,77,0.00,,,0.00,WeatherCatV1.15B25,2013-07-02 21:02:00,
2013-07-02 17:07:00,71.0,64.1,30.00,ENE,63,0.0,4.0,79,0.00,,,0.00,WeatherCatV1.15B25,2013-07-02 21:07:00,
2013-07-02 17:12:00,71.3,64.4,30.00,NW,323,6.0,9.0,79,0.00,,,0.00,WeatherCatV1.15B25,2013-07-02 21:12:00,
2013-07-02 17:17:00,71.1,63.9,30.01,NNW,331,3.0,6.0,78,0.00,,,0.00,WeatherCatV1.15B25,2013-07-02 21:17:00,
2013-07-02 17:22:00,70.9,64.1,30.01,North,0,0.0,4.0,79,0.00,,,0.00,WeatherCatV1.15B25,2013-07-02 21:22:00,
2013-07-02 17:27:00,71.3,64.4,30.00,NE,53,6.0,9.0,79,0.00,,,0.00,WeatherCatV1.15B25,2013-07-02 21:27:00,
2013-07-02 17:32:00,71.6,64.7,30.00,NNW,342,4.0,6.0,79,0.00,,,0.00,WeatherCatV1.15B25,2013-07-02 21:32:00,
2013-07-02 17:37:00,71.6,64.0,30.00,NNW,343,4.0,9.0,77,0.00,,,0.00,WeatherCatV1.15B25,2013-07-02 21:37:00,
2013-07-02 17:42:00,71.1,63.9,30.01,North,11,0.0,3.0,78,0.00,,,0.00,WeatherCatV1.15B25,2013-07-02 21:42:00,
2013-07-02 17:47:00,70.7,63.5,30.01,ENE,60,3.0,3.0,78,0.00,,,0.00,WeatherCatV1.15B25,2013-07-02 21:47:00,
2013-07-02 17:49:00,70.7,63.9,30.00,NE,36,0.0,7.0,79,0.00,,,0.00,WeatherCatV1.15B25,2013-07-02 21:49:00,
2013-07-02 17:54:00,70.9,64.1,30.00,North,5,0.0,9.0,79,0.00,,,0.00,WeatherCatV1.15B25,2013-07-02 21:54:00,
2013-07-02 17:59:00,71.4,64.5,30.00,North,0,2.0,11.0,79,0.00,,,0.00,WeatherCatV1.15B25,2013-07-02 21:59:00,
2013-07-02 18:04:00,71.4,64.2,30.00,NNE,17,0.0,5.0,78,0.00,,,0.00,WeatherCatV1.15B25,2013-07-02 22:04:00,
2013-07-02 18:09:00,71.2,64.0,30.00,NNE,30,2.0,9.0,78,0.00,,,0.00,WeatherCatV1.15B25,2013-07-02 22:09:00,
2013-07-02 18:14:00,70.9,63.7,30.00,NE,34,5.0,7.0,78,0.00,,,0.00,WeatherCatV1.15B25,2013-07-02 22:14:00,
2013-07-02 18:19:00,71.1,64.2,30.00,NNW,340,3.0,5.0,79,0.00,,,0.00,WeatherCatV1.15B25,2013-07-02 22:19:00,
2013-07-02 18:24:00,71.4,64.2,30.00,NE,53,3.0,3.0,78,0.00,,,0.00,WeatherCatV1.15B25,2013-07-02 22:24:00,
2013-07-02 18:29:00,71.6,64.4,30.00,NNW,332,4.0,4.0,78,0.00,,,0.00,WeatherCatV1.15B25,2013-07-02 22:29:00,
2013-07-02 18:34:00,71.6,64.0,30.00,North,0,2.0,6.0,77,0.00,,,0.00,WeatherCatV1.15B25,2013-07-02 22:34:00,
2013-07-02 18:40:00,71.8,64.6,30.00,ENE,68,0.0,3.0,78,0.00,,,0.00,WeatherCatV1.15B25,2013-07-02 22:40:00,
2013-07-02 18:45:00,71.9,64.3,30.00,North,0,2.0,6.0,77,0.00,,,0.00,WeatherCatV1.15B25,2013-07-02 22:45:00,
2013-07-02 18:50:00,71.9,64.3,30.01,North,5,1.0,6.0,77,0.00,,,0.00,WeatherCatV1.15B25,2013-07-02 22:50:00,
2013-07-02 18:55:00,71.7,64.1,30.01,NNE,22,0.0,4.0,77,0.00,,,0.00,WeatherCatV1.15B25,2013-07-02 22:55:00,
2013-07-02 19:00:00,71.8,64.2,30.01,NNE,15,0.0,4.0,77,0.00,,,0.00,WeatherCatV1.15B25,2013-07-02 23:00:00,
2013-07-02 19:05:00,71.8,64.6,30.01,NE,37,0.0,0.0,78,0.00,,,0.00,WeatherCatV1.15B25,2013-07-02 23:05:00,
2013-07-02 19:10:00,71.5,63.9,30.01,ENE,63,2.0,5.0,77,0.00,,,0.00,WeatherCatV1.15B25,2013-07-02 23:10:00,
2013-07-02 19:15:00,71.3,63.7,30.02,NNE,18,1.0,2.0,77,0.00,,,0.00,WeatherCatV1.15B25,2013-07-02 23:15:00,
2013-07-02 19:20:00,71.1,63.5,30.01,NNW,345,2.0,7.0,77,0.00,,,0.00,WeatherCatV1.15B25,2013-07-02 23:20:00,
2013-07-02 19:25:00,71.1,63.9,30.01,North,0,0.0,4.0,78,0.00,,,0.00,WeatherCatV1.15B25,2013-07-02 23:25:00,
2013-07-02 19:29:00,71.1,63.9,30.01,NE,38,3.0,5.0,78,0.00,,,0.00,WeatherCatV1.15B25,2013-07-02 23:29:00,
2013-07-02 19:34:00,71.1,63.9,30.01,North,11,2.0,7.0,78,0.00,,,0.00,WeatherCatV1.15B25,2013-07-02 23:34:00,
2013-07-02 19:39:00,71.1,63.9,30.01,NNW,340,4.0,4.0,78,0.00,,,0.00,WeatherCatV1.15B25,2013-07-02 23:39:00,
2013-07-02 19:44:00,71.0,63.8,30.01,North,5,3.0,3.0,78,0.00,,,0.00,WeatherCatV1.15B25,2013-07-02 23:44:00,
2013-07-02 19:49:00,71.0,63.8,30.01,North,355,5.0,5.0,78,0.00,,,0.00,WeatherCatV1.15B25,2013-07-02 23:49:00,
2013-07-02 19:54:00,71.0,63.8,30.01,North,0,2.0,4.0,78,0.00,,,0.00,WeatherCatV1.15B25,2013-07-02 23:54:00,
2013-07-02 19:59:00,71.0,63.8,30.02,North,355,1.0,4.0,78,0.00,,,0.00,WeatherCatV1.15B25,2013-07-02 23:59:00,
2013-07-02 20:04:00,70.8,63.6,30.01,North,9,2.0,5.0,78,0.00,,,0.00,WeatherCatV1.15B25,2013-07-03 00:04:00,
2013-07-02 20:09:00,70.7,63.5,30.01,ENE,62,1.0,2.0,78,0.00,,,0.00,WeatherCatV1.15B25,2013-07-03 00:09:00,
2013-07-02 20:11:00,70.6,63.4,30.01,NNE,22,0.0,3.0,78,0.00,,,0.00,WeatherCatV1.15B25,2013-07-03 00:11:00,
2013-07-02 20:16:00,70.5,63.3,30.01,NNE,15,0.0,4.0,78,0.00,,,0.00,WeatherCatV1.15B25,2013-07-03 00:16:00,
2013-07-02 20:21:00,70.5,63.3,30.01,North,0,1.0,3.0,78,0.00,,,0.00,WeatherCatV1.15B25,2013-07-03 00:21:00,
2013-07-02 20:26:00,70.4,63.2,30.02,North,0,0.0,5.0,78,0.00,,,0.00,WeatherCatV1.15B25,2013-07-03 00:26:00,
2013-07-02 20:30:00,70.4,63.6,30.01,NE,55,2.0,2.0,79,0.00,,,0.00,WeatherCatV1.15B25,2013-07-03 00:30:00,
2013-07-02 20:33:00,70.4,63.6,30.01,NNW,346,2.0,6.0,79,0.00,,,0.00,WeatherCatV1.15B25,2013-07-03 00:33:00,
2013-07-02 20:38:00,70.3,63.5,30.02,NE,47,0.0,4.0,79,0.00,,,0.00,WeatherCatV1.15B25,2013-07-03 00:38:00,
2013-07-02 20:43:00,70.2,63.4,30.02,NE,49,0.0,0.0,79,0.00,,,0.00,WeatherCatV1.15B25,2013-07-03 00:43:00,
2013-07-02 20:46:00,70.2,63.4,30.02,NE,49,0.0,0.0,79,0.00,,,0.00,WeatherCatV1.15B25,2013-07-03 00:46:00,
2013-07-02 20:51:00,70.1,63.3,30.02,North,11,0.0,0.0,79,0.00,,,0.00,WeatherCatV1.15B25,2013-07-03 00:51:00,
2013-07-02 20:56:00,70.0,63.2,30.02,North,10,0.0,0.0,79,0.00,,,0.00,WeatherCatV1.15B25,2013-07-03 00:56:00,
2013-07-02 21:01:00,69.9,63.1,30.02,NNW,344,2.0,4.0,79,0.00,,,0.00,WeatherCatV1.15B25,2013-07-03 01:01:00,
2013-07-02 21:06:00,69.9,63.1,30.02,NNE,24,0.0,1.0,79,0.00,,,0.00,WeatherCatV1.15B25,2013-07-03 01:06:00,
2013-07-02 21:09:00,69.8,63.0,30.01,North,0,0.0,3.0,79,0.00,,,0.00,WeatherCatV1.15B25,2013-07-03 01:09:00,
2013-07-02 21:12:00,69.8,63.3,30.01,ENE,76,0.0,0.0,80,0.00,,,0.00,WeatherCatV1.15B25,2013-07-03 01:12:00,
2013-07-02 21:16:00,69.8,63.3,30.01,ENE,76,0.0,0.0,80,0.00,,,0.00,WeatherCatV1.15B25,2013-07-03 01:16:00,
2013-07-02 21:21:00,69.7,63.2,30.02,North,0,0.0,1.0,80,0.00,,,0.00,WeatherCatV1.15B25,2013-07-03 01:21:00,
2013-07-02 21:26:00,69.7,63.2,30.02,NNE,31,0.0,5.0,80,0.00,,,0.00,WeatherCatV1.15B25,2013-07-03 01:26:00,
2013-07-02 21:28:00,69.7,63.2,30.02,North,355,0.0,3.0,80,0.00,,,0.00,WeatherCatV1.15B25,2013-07-03 01:28:00,
2013-07-02 21:33:00,69.8,63.3,30.02,NE,35,0.0,3.0,80,0.00,,,0.00,WeatherCatV1.15B25,2013-07-03 01:33:00,
2013-07-02 21:38:00,69.8,63.3,30.02,NNE,30,0.0,2.0,80,0.00,,,0.00,WeatherCatV1.15B25,2013-07-03 01:38:00,
2013-07-02 21:43:00,69.9,63.4,30.02,North,11,3.0,3.0,80,0.00,,,0.00,WeatherCatV1.15B25,2013-07-03 01:43:00,
2013-07-02 21:48:00,69.8,63.3,30.02,ESE,111,0.0,0.0,80,0.00,,,0.00,WeatherCatV1.15B25,2013-07-03 01:48:00,
2013-07-02 21:51:00,69.8,63.3,30.02,ESE,110,0.0,0.0,80,0.00,,,0.00,WeatherCatV1.15B25,2013-07-03 01:51:00,
2013-07-02 21:55:00,69.8,63.3,30.02,North,0,3.0,3.0,80,0.00,,,0.00,WeatherCatV1.15B25,2013-07-03 01:55:00,
2013-07-02 22:00:00,69.8,63.3,30.03,NE,46,0.0,2.0,80,0.00,,,0.00,WeatherCatV1.15B25,2013-07-03 02:00:00,
2013-07-02 22:05:00,69.8,63.3,30.03,North,5,0.0,0.0,80,0.00,,,0.00,WeatherCatV1.15B25,2013-07-03 02:05:00,
2013-07-02 22:11:00,69.9,63.4,30.03,North,10,0.0,0.0,80,0.00,,,0.00,WeatherCatV1.15B25,2013-07-03 02:11:00,
2013-07-02 22:16:00,69.9,63.4,30.03,North,0,0.0,0.0,80,0.00,,,0.00,WeatherCatV1.15B25,2013-07-03 02:16:00,
2013-07-02 22:22:00,69.8,63.3,30.03,North,5,0.0,0.0,80,0.00,,,0.00,WeatherCatV1.15B25,2013-07-03 02:22:00,
2013-07-02 22:27:00,69.7,63.6,30.03,North,5,0.0,0.0,81,0.00,,,0.00,WeatherCatV1.15B25,2013-07-03 02:27:00,
2013-07-02 22:32:00,69.6,63.5,30.03,North,0,0.0,0.0,81,0.00,,,0.00,WeatherCatV1.15B25,2013-07-03 02:32:00,
2013-07-02 22:35:00,69.5,63.4,30.03,North,5,0.0,0.0,81,0.00,,,0.00,WeatherCatV1.15B25,2013-07-03 02:35:00,
2013-07-02 22:40:00,69.5,63.8,30.03,North,0,0.0,0.0,82,0.00,,,0.00,WeatherCatV1.15B25,2013-07-03 02:40:00,
2013-07-02 22:45:00,69.5,63.8,30.03,North,0,0.0,1.0,82,0.00,,,0.00,WeatherCatV1.15B25,2013-07-03 02:45:00,
2013-07-02 22:51:00,69.6,63.9,30.03,North,0,0.0,0.0,82,0.00,,,0.00,WeatherCatV1.15B25,2013-07-03 02:51:00,
2013-07-02 22:56:00,69.6,63.9,30.03,North,5,0.0,0.0,82,0.00,,,0.00,WeatherCatV1.15B25,2013-07-03 02:56:00,
2013-07-02 23:01:00,69.7,63.9,30.03,North,5,0.0,0.0,82,0.00,,,0.00,WeatherCatV1.15B25,2013-07-03 03:01:00,
2013-07-02 23:05:00,69.7,63.9,30.03,North,5,0.0,0.0,82,0.00,,,0.00,WeatherCatV1.15B25,2013-07-03 03:05:00,
2013-07-02 23:10:00,69.7,63.9,30.03,North,5,0.0,0.0,82,0.00,,,0.00,WeatherCatV1.15B25,2013-07-03 03:10:00,
2013-07-02 23:15:00,69.7,63.9,30.03,North,0,0.0,0.0,82,0.00,,,0.00,WeatherCatV1.15B25,2013-07-03 03:15:00,
2013-07-02 23:20:00,69.8,64.4,30.03,North,0,0.0,0.0,83,0.00,,,0.00,WeatherCatV1.15B25,2013-07-03 03:20:00,
2013-07-02 23:25:00,69.7,64.3,30.03,North,5,0.0,0.0,83,0.00,,,0.00,WeatherCatV1.15B25,2013-07-03 03:25:00,
2013-07-02 23:30:00,69.6,64.2,30.03,North,5,0.0,0.0,83,0.00,,,0.00,WeatherCatV1.15B25,2013-07-03 03:30:00,
2013-07-02 23:35:00,69.5,64.1,30.02,North,5,0.0,0.0,83,0.00,,,0.00,WeatherCatV1.15B25,2013-07-03 03:35:00,
2013-07-02 23:37:00,69.5,64.1,30.02,North,5,0.0,0.0,83,0.00,,,0.00,WeatherCatV1.15B25,2013-07-03 03:37:00,
2013-07-02 23:40:00,69.4,64.0,30.02,North,5,0.0,0.0,83,0.00,,,0.00,WeatherCatV1.15B25,2013-07-03 03:40:00,
2013-07-02 23:45:00,69.3,63.9,30.02,North,5,0.0,0.0,83,0.00,,,0.00,WeatherCatV1.15B25,2013-07-03 03:45:00,
2013-07-02 23:49:00,69.2,64.2,30.02,North,5,0.0,0.0,84,0.00,,,0.00,WeatherCatV1.15B25,2013-07-03 03:49:00,
2013-07-02 23:54:00,69.1,64.1,30.03,North,0,0.0,0.0,84,0.00,,,0.00,WeatherCatV1.15B25,2013-07-03 03:54:00,
2013-07-02 23:59:00,69.1,64.1,30.03,West,276,0.0,0.0,84,0.00,,,0.00,WeatherCatV1.15B25,2013-07-03 03:59:00,